Simultaneous Nadir Overpasses (SNOs) Predictions

Prediction of SNOs between METOP-B and NPP Satellite Orbit:

Table of predicted SNOs for the next 14.0 days since TLE Epoch: 9/14/2024
Index Date (METOP-B) Time (METOP-B) Lat,Lon (METOP-B) SZA (METOP-B ) Date (NPP) Time (NPP) Lat,Lon (NPP) SZA (NPP ) Distance(km) Time Diff (sec)
1 09/25/2024 00:58:25 -74.24, -22.69 104.79 09/25/2024 00:57:19 -74.25, -25.92 104.64 97.43 66
2 09/25/2024 01:49:09 74.02, 144.11 75.03 09/25/2024 01:48:00 74.04, 141.92 75.15 67.12 69
3 09/25/2024 02:39:53 -73.91, -48.82 105.06 09/25/2024 02:38:42 -73.92, -50.47 104.97 50.87 71
4 09/25/2024 03:30:36 73.75, 118.11 74.81 09/25/2024 03:29:24 73.76, 117.23 74.87 27.55 72
5 09/25/2024 04:21:20 -73.64, -74.81 105.28 09/25/2024 04:20:06 -73.64, -75.17 105.26 11.45 74
6 09/25/2024 05:12:01 73.57, 92.36 74.67 09/25/2024 05:10:50 73.57, 92.29 74.69 2.46 71
7 09/25/2024 06:02:43 -73.56,-100.32 105.33 09/25/2024 06:01:34 -73.55,-100.35 105.32 1.13 69
8 09/25/2024 06:53:23 73.54, 66.96 74.67 09/25/2024 06:52:19 73.54, 67.00 74.68 1.18 64
9 09/25/2024 07:44:05 -73.53,-125.73 105.32 09/25/2024 07:43:03 -73.52,-125.64 105.33 3.24 62
10 09/25/2024 08:34:44 73.56, 41.67 74.72 09/25/2024 08:33:49 73.55, 41.59 74.72 2.78 55
11 09/25/2024 09:25:26 -73.56,-151.02 105.28 09/25/2024 09:24:33 -73.53,-151.05 105.29 2.87 53
12 09/25/2024 10:16:06 73.53, 16.27 74.72 09/25/2024 10:15:18 73.52, 16.30 74.71 2.28 48
13 09/25/2024 11:06:48 -73.53,-176.42 105.27 09/25/2024 11:06:03 -73.55,-176.45 105.25 2.19 45
14 09/25/2024 11:57:28 73.51, -9.13 74.73 09/25/2024 11:56:48 73.53, -9.10 74.75 2.73 40
15 09/25/2024 12:48:10 -73.50, 158.18 105.27 09/25/2024 12:47:32 -73.51, 158.26 105.26 2.61 38
16 09/25/2024 13:38:49 73.53, -34.42 74.77 09/25/2024 13:38:18 73.54, -34.51 74.80 3.27 31
17 09/25/2024 14:29:31 -73.52, 132.89 105.22 09/25/2024 14:29:02 -73.52, 132.85 105.22 1.27 29
18 09/25/2024 15:20:11 73.50, -59.82 74.77 09/25/2024 15:19:47 73.51, -59.80 74.78 1.03 24
19 09/25/2024 16:10:53 -73.50, 107.49 105.22 09/25/2024 16:10:31 -73.49, 107.56 105.23 2.37 22
20 09/25/2024 17:01:32 73.52, -85.11 74.82 09/25/2024 17:01:17 73.52, -85.21 74.83 3.01 15
21 09/25/2024 17:52:14 -73.52, 82.20 105.17 09/25/2024 17:52:01 -73.50, 82.15 105.19 2.29 13
22 09/25/2024 18:42:54 73.50,-110.52 74.82 09/25/2024 18:42:46 73.49,-110.50 74.82 1.14 8
23 09/25/2024 19:33:36 -73.49, 56.80 105.17 09/25/2024 19:33:31 -73.52, 56.75 105.14 3.27 5
24 09/25/2024 20:24:16 73.47,-135.92 74.83 09/25/2024 20:24:16 73.50,-135.91 74.86 3.67 0
25 09/25/2024 21:14:58 -73.46, 31.40 105.17 09/25/2024 21:15:00 -73.48, 31.46 105.16 2.75 2
26 09/25/2024 22:05:37 73.49,-161.21 74.87 09/25/2024 22:05:45 73.47,-161.20 74.85 2.83 8
27 09/25/2024 22:56:19 -73.49, 6.11 105.12 09/25/2024 22:56:30 -73.49, 6.05 105.11 2.07 11
28 09/25/2024 23:46:59 73.46, 173.39 74.88 09/25/2024 23:47:15 73.48, 173.40 74.89 1.88 16
29 09/26/2024 00:37:41 -73.46, -19.30 105.12 09/26/2024 00:37:59 -73.46, -19.24 105.12 1.71 18
30 09/26/2024 01:28:20 73.49, 148.10 74.92 09/26/2024 01:28:45 73.49, 147.99 74.93 3.63 25
31 09/26/2024 02:19:02 -73.48, -44.59 105.07 09/26/2024 02:19:29 -73.47, -44.65 105.08 2.10 27
32 09/26/2024 03:09:42 73.46, 122.70 74.92 09/26/2024 03:10:14 73.46, 122.70 74.92 0.12 32
33 09/26/2024 04:00:24 -73.45, -69.99 105.07 09/26/2024 04:00:58 -73.44, -69.94 105.09 2.17 34
34 09/26/2024 04:51:04 73.43, 97.29 74.93 09/26/2024 04:51:43 73.42, 97.40 74.91 3.56 39
35 09/26/2024 05:41:45 -73.47, -95.28 105.02 09/26/2024 05:42:28 -73.45, -95.35 105.05 3.30 43
36 09/26/2024 06:32:25 73.45, 72.00 74.97 09/26/2024 06:33:13 73.44, 72.00 74.95 1.63 48
37 09/26/2024 07:23:07 -73.45,-120.68 105.02 09/26/2024 07:23:58 -73.47,-120.75 105.01 3.19 51
38 09/26/2024 08:13:47 73.42, 46.60 74.98 09/26/2024 08:14:43 73.45, 46.59 74.99 3.12 56
39 09/26/2024 09:04:29 -73.42,-146.08 105.02 09/26/2024 09:05:27 -73.43,-146.05 105.02 1.78 58
40 09/26/2024 09:55:08 73.45, 21.31 75.02 09/26/2024 09:56:12 73.42, 21.30 74.98 3.36 64
41 09/26/2024 10:45:50 -73.44,-171.37 104.97 09/26/2024 10:46:57 -73.44,-171.45 104.98 2.55 67
42 09/26/2024 11:36:30 73.42, -4.09 75.02 09/26/2024 11:37:42 73.43, -4.11 75.03 1.48 72
43 09/26/2024 12:27:11 -73.41, 163.22 104.97 09/26/2024 12:28:25 -73.41, 163.25 104.99 1.02 74
44 09/26/2024 13:17:55 73.19, -29.94 74.84 09/26/2024 13:19:07 73.24, -29.06 74.85 28.70 72
45 09/26/2024 14:08:39 -73.08, 137.17 105.24 09/26/2024 14:09:49 -73.12, 138.51 105.27 43.85 70
46 09/26/2024 14:59:23 72.85, -55.98 74.57 09/26/2024 15:00:30 72.91, -53.71 74.52 74.68 67
47 09/26/2024 15:50:06 -72.80, 111.24 105.47 09/26/2024 15:51:13 -72.84, 113.76 105.55 82.84 67



Historial Predications of SNOs between METOP-B and NPP
